Wind_Speed
89 82 76 69 66 62 59 56 55 51 48 48 49 50 51 55 62 66 73 82 87 98 104 110 114 116 116 114 110 108 107 100 93 92 88 86 79 80 79 79 72 67 69 68 63
92 84 76 69 66 64 60 58 55 54 53 51 51 53 54 56 62 66 76 85 88 97 103 111 115 119 119 118 117 113 108 99 92 89 93 91 86 81 81 80 75 71 74 73 71
90 85 80 72 67 64 59 58 55 55 56 55 51 54 59 60 61 69 77 84 89 96 105 112 116 120 122 123 121 113 106 101 97 96 97 95 89 84 83 80 78 74 76 74 72
90 86 80 75 69 64 59 54 53 50 49 48 49 48 57 61 64 72 75 86 92 97 106 112 117 119 122 123 122 116 111 106 102 102 98 98 91 87 84 83 81 79 77 75 73
91 89 83 77 73 69 64 57 51 43 41 38 40 43 46 57 70 75 76 89 93 96 103 111 116 117 120 123 124 120 117 111 111 106 97 98 94 90 88 85 82 81 78 76 77
92 88 84 79 76 71 67 62 50 38 31 30 34 38 44 58 72 74 79 88 92 97 103 110 116 119 120 123 124 122 122 119 115 104 98 97 94 91 92 89 84 81 78 80 80
94 88 83 82 79 74 69 64 51 37 31 25 29 35 41 53 66 76 80 84 91 98 104 109 118 118 118 119 122 124 127 121 115 108 100 97 93 90 94 90 85 83 83 84 80
100 91 85 82 79 76 72 66 54 47 40 28 22 27 36 49 65 73 83 85 90 97 102 110 117 120 118 118 121 124 126 122 115 111 105 102 96 92 96 91 89 89 87 85 83
103 95 88 84 82 79 73 67 59 55 48 30 18 19 32 47 61 69 79 85 88 95 101 110 115 123 119 118 118 123 125 120 119 113 110 108 101 97 95 93 90 90 87 88 86
108 99 93 89 86 84 77 70 63 56 46 31 18 11 26 42 54 66 75 81 86 93 101 105 112 121 118 115 113 113 119 120 119 115 114 109 105 102 98 94 94 93 90 87 88
111 102 96 92 90 87 81 73 66 58 47 35 20 6 19 33 47 60 69 78 83 87 96 100 103 107 122 123 116 115 118 122 124 120 119 114 111 108 102 96 94 93 93 89 87
113 104 96 93 90 88 83 76 71 61 47 36 24 9 9 24 39 50 60 69 78 83 91 95 97 109 118 121 117 113 112 113 120 122 122 120 115 111 104 99 95 94 92 90 87
110 106 97 91 89 87 86 78 72 61 53 38 24 14 6 20 32 46 59 68 75 78 81 86 96 102 106 115 117 113 109 112 114 120 119 119 116 114 106 103 100 98 93 90 88
110 106 98 91 89 85 83 79 73 65 58 38 25 16 8 12 26 40 56 69 75 78 77 79 90 96 100 103 110 115 117 107 106 112 117 121 119 117 112 106 103 101 95 91 88
108 105 99 91 87 82 79 77 72 66 57 40 28 17 12 8 18 32 46 57 70 72 69 73 77 88 96 100 102 108 106 105 107 106 109 118 121 118 115 109 103 102 99 96 91
106 103 99 92 86 81 76 74 69 66 57 46 30 21 13 12 13 27 36 43 53 57 66 72 73 78 86 89 91 92 94 103 107 105 106 111 118 120 117 113 111 103 100 99 97
102 103 99 91 86 80 75 71 67 62 59 51 35 23 17 11 12 18 26 37 46 52 59 63 64 71 75 77 81 81 85 93 99 98 102 110 112 114 119 117 112 109 105 101 99
100 99 99 91 85 80 75 69 64 59 55 51 38 24 17 16 6 12 21 30 33 39 46 52 57 64 65 64 66 70 75 78 85 89 100 114 105 108 116 117 115 115 112 107 101
95 96 96 93 84 81 75 70 63 58 53 50 42 26 13 13 12 6 9 13 19 26 35 44 46 50 54 56 59 59 60 66 73 80 92 100 103 104 108 113 116 117 115 111 106
93 94 95 92 86 79 73 68 64 56 48 44 38 27 17 9 13 13 7 6 14 19 24 32 41 50 57 56 52 51 53 57 64 73 81 87 100 107 106 112 116 118 117 114 112
98 93 93 92 87 77 71 65 60 54 48 41 37 29 18 10 7 12 14 12 12 16 22 26 31 37 42 43 45 48 50 54 59 65 73 81 85 97 110 113 114 115 115 117 115
101 93 91 90 85 78 69 62 58 51 46 41 36 32 22 11 6 6 12 15 17 19 22 24 29 33 36 38 42 43 45 50 54 59 66 70 76 84 97 106 112 114 115 115 115
108 94 88 87 83 76 69 59 54 51 42 37 35 32 26 15 6 4 7 12 15 17 20 22 26 29 31 32 35 38 42 47 52 57 61 66 69 77 85 96 102 109 112 113 113
108 96 89 84 82 74 67 59 52 45 41 34 30 28 25 19 10 2 4 8 13 16 19 23 26 29 31 32 35 37 39 44 48 52 57 60 66 71 76 83 92 100 108 111 112
111 101 93 83 81 75 66 55 51 47 40 32 25 21 20 17 13 7 4 8 12 16 19 21 24 27 28 30 33 35 36 39 43 47 49 53 59 65 69 74 82 88 95 101 105
106 101 93 88 77 74 66 55 48 45 38 32 26 21 17 15 11 8 5 8 11 14 17 21 25 30 31 32 33 34 35 36 39 41 47 49 55 60 65 69 74 78 83 88 92
103 101 93 84 76 72 67 56 48 41 38 31 25 20 16 14 13 10 9 7 9 12 16 17 19 24 27 30 33 35 35 35 38 40 41 47 51 55 60 64 67 72 77 79 82
Wind_Direction
345 342 341 335 331 326 322 315 308 297 285 275 265 254 244 234 228 225 217 215 214 211 211 211 210 210 211 213 214 216 214 213 216 216 214 218 215 221 220 222 222 220 221 225 229
346 343 341 337 334 329 323 317 309 300 290 276 262 253 244 234 228 222 218 214 212 211 210 211 210 210 211 213 213 216 215 213 215 220 218 216 214 218 221 223 224 221 220 224 227
347 344 342 340 338 331 325 318 311 300 290 280 267 250 241 233 226 221 216 215 212 211 209 211 211 210 211 212 214 214 215 212 214 218 221 221 215 215 220 222 225 224 223 226 229
348 346 344 341 340 336 331 325 315 302 288 278 269 252 236 230 223 222 214 213 212 211 209 210 212 211 212 212 214 215 215 211 212 216 220 222 219 214 221 223 223 225 224 225 229
351 348 346 345 344 341 338 333 323 306 294 281 265 253 236 223 220 220 213 213 212 210 210 209 212 213 212 213 213 214 215 212 213 215 217 223 220 218 220 222 224 225 226 226 229
353 350 349 349 347 346 343 340 331 316 303 285 263 246 229 213 219 216 214 212 211 209 209 209 211 214 213 213 214 215 215 213 213 214 216 222 223 221 223 223 223 227 229 229 231
355 353 353 352 351 350 348 345 341 339 330 300 265 248 226 214 215 212 214 212 211 209 207 208 211 214 216 213 214 216 216 214 213 213 216 222 224 223 225 226 224 226 228 232 233
355 354 355 356 355 355 354 352 352 352 346 325 280 247 223 212 213 210 212 210 210 209 208 208 210 213 216 215 214 215 217 216 215 213 214 220 224 223 226 226 226 228 228 230 234
356 355 357 358 359 360 359 358 359 357 350 341 304 244 215 209 209 210 211 210 207 209 209 209 210 211 216 217 216 215 218 217 217 214 215 219 221 222 225 225 227 229 231 232 233
355 355 358 359 1 2 2 3 4 0 353 351 336 254 218 208 207 206 209 211 208 207 209 209 211 211 215 218 219 218 218 218 219 217 217 219 222 223 224 224 226 228 231 233 235
355 356 357 0 1 4 3 6 7 6 3 2 360 306 202 209 205 207 207 210 210 207 209 210 214 213 211 215 219 219 218 217 218 218 220 218 221 223 224 224 226 229 231 233 236
352 357 356 360 2 3 4 8 10 9 10 11 13 30 192 199 200 205 208 210 210 209 210 211 212 213 213 215 219 220 221 219 219 220 219 222 221 223 225 226 226 229 231 233 236
351 357 357 360 2 3 4 7 11 12 17 12 20 45 131 187 193 195 202 210 211 212 212 210 213 215 216 217 219 221 222 222 219 221 222 224 226 225 224 227 228 229 231 232 235
352 357 358 359 1 4 4 6 10 13 15 10 21 55 75 174 191 193 198 205 211 213 210 210 213 215 218 218 220 219 222 224 222 222 222 224 226 228 226 227 230 231 230 234 236
351 355 359 359 2 2 5 6 8 14 12 15 23 33 83 128 188 198 200 205 209 214 214 214 214 216 219 220 220 220 223 225 226 226 225 225 225 229 229 230 231 233 233 233 236
350 354 358 359 1 1 4 7 6 14 12 16 25 35 50 115 171 193 203 212 215 216 215 215 213 217 221 224 224 224 223 225 227 228 228 228 227 228 230 231 232 234 235 237 237
351 353 355 360 0 1 1 7 6 11 15 15 23 38 47 77 148 185 202 210 215 221 220 219 219 218 221 223 226 226 225 227 227 227 229 231 229 229 231 232 233 235 236 237 239
351 352 352 358 360 359 358 3 9 10 14 14 17 28 57 58 91 174 192 202 214 219 223 226 225 223 225 223 225 226 227 226 228 226 225 230 231 230 232 233 233 235 237 238 239
351 352 350 354 359 358 357 357 6 10 11 15 12 15 49 74 79 89 186 199 216 212 213 226 229 227 228 228 227 229 228 227 228 228 228 228 230 232 233 234 235 236 237 239 240
352 352 350 351 355 357 356 354 359 6 11 12 14 13 20 68 105 105 129 179 200 213 217 218 217 220 225 228 229 231 228 229 227 228 229 228 229 232 234 235 235 236 238 240 241
352 352 350 349 351 355 356 352 355 359 6 9 12 13 22 41 86 127 140 150 178 204 207 216 222 223 222 224 228 229 230 228 228 228 228 227 228 229 231 234 237 238 239 240 243
353 353 349 348 348 351 355 352 350 355 0 3 7 12 13 33 77 134 152 156 167 178 195 205 211 218 221 223 224 225 227 226 226 227 228 229 229 229 231 233 237 240 241 242 242
356 351 350 346 346 348 350 352 348 350 355 359 1 5 8 10 35 107 167 176 180 182 186 190 196 203 206 211 218 221 223 223 224 225 226 228 228 229 230 234 236 239 242 245 246
357 352 348 346 342 345 347 347 346 348 348 354 358 357 359 358 358 14 173 192 196 195 196 195 195 200 205 210 213 216 220 223 224 222 223 226 229 231 231 232 236 238 240 243 246
358 352 346 345 342 342 342 344 343 344 345 347 353 352 350 347 342 326 242 208 209 212 208 209 207 205 207 210 210 212 214 220 223 224 221 223 226 230 231 232 234 237 239 242 245
354 352 347 343 343 341 337 339 340 340 342 340 342 346 344 344 328 309 278 243 222 213 218 217 216 213 210 208 210 211 207 210 215 216 221 221 224 228 231 232 233 235 238 242 244
353 350 345 343 340 338 335 333 334 336 337 335 334 335 331 328 322 309 294 261 245 236 225 219 223 224 219 213 211 214 216 216 215 216 216 217 222 226 229 230 233 234 237 239 244
Height
10614 10597 10583 10569 10556 10544 10531 10520 10511 10505 10502 10498 10496 10498 10504 10510 10514 10524 10534 10541 10552 10565 10580 10592 10608 10625 10643 10658 10672 10682 10696 10717 10734 10741 10753 10760 10781 10785 10795 10797 10812 10828 10833 10836 10843
10604 10587 10572 10557 10542 10529 10515 10503 10490 10479 10474 10474 10475 10476 10481 10488 10495 10509 10513 10519 10533 10545 10562 10576 10591 10607 10626 10642 10653 10666 10689 10717 10731 10738 10736 10741 10762 10775 10783 10793 10804 10815 10822 10825 10831
10594 10576 10559 10543 10529 10516 10501 10485 10471 10459 10448 10443 10447 10453 10456 10465 10477 10483 10492 10505 10517 10529 10544 10555 10571 10592 10606 10623 10638 10660 10684 10703 10713 10720 10724 10733 10754 10765 10773 10784 10796 10805 10813 10819 10826
10584 10565 10548 10531 10515 10501 10486 10469 10452 10437 10427 10421 10419 10425 10430 10443 10457 10458 10478 10486 10496 10508 10524 10541 10558 10577 10594 10613 10629 10648 10666 10686 10694 10694 10715 10721 10743 10757 10763 10773 10785 10796 10805 10813 10817
10576 10555 10537 10517 10500 10482 10465 10448 10432 10417 10406 10401 10399 10402 10411 10424 10431 10438 10455 10463 10476 10495 10514 10528 10545 10563 10582 10597 10612 10633 10649 10666 10664 10679 10704 10710 10730 10745 10749 10762 10775 10784 10796 10805 10806
10569 10548 10528 10508 10488 10469 10449 10430 10413 10399 10389 10383 10380 10382 10389 10395 10398 10422 10434 10445 10465 10481 10497 10514 10529 10543 10559 10578 10600 10619 10630 10641 10656 10681 10695 10702 10718 10734 10742 10750 10764 10777 10787 10789 10795
10561 10540 10519 10498 10478 10457 10437 10416 10398 10385 10375 10369 10364 10364 10372 10382 10388 10403 10418 10435 10449 10463 10480 10500 10511 10528 10546 10566 10585 10600 10610 10626 10651 10670 10687 10694 10707 10730 10731 10742 10760 10765 10772 10775 10785
10551 10532 10513 10491 10471 10449 10428 10406 10386 10374 10363 10355 10350 10351 10357 10365 10371 10388 10398 10416 10433 10451 10470 10483 10495 10513 10530 10551 10569 10587 10597 10619 10645 10661 10673 10677 10698 10712 10717 10734 10745 10751 10759 10766 10775
10541 10521 10505 10483 10462 10444 10423 10400 10380 10366 10354 10347 10342 10342 10344 10350 10360 10374 10384 10402 10420 10440 10456 10469 10485 10502 10516 10537 10555 10572 10588 10617 10629 10651 10658 10663 10681 10694 10703 10722 10733 10743 10750 10756 10763
10533 10511 10496 10475 10454 10436 10419 10398 10378 10364 10351 10341 10335 10335 10338 10342 10352 10364 10378 10394 10412 10429 10443 10461 10474 10493 10510 10530 10551 10575 10589 10607 10622 10640 10646 10655 10668 10680 10691 10708 10718 10728 10735 10744 10752
10528 10508 10487 10469 10449 10432 10415 10396 10379 10364 10351 10340 10333 10332 10334 10340 10349 10359 10371 10386 10404 10423 10438 10454 10472 10498 10515 10520 10536 10549 10563 10581 10597 10617 10627 10643 10649 10662 10677 10694 10706 10714 10721 10732 10741
10524 10509 10487 10468 10449 10430 10416 10397 10382 10368 10356 10345 10338 10335 10337 10342 10350 10362 10375 10386 10401 10419 10429 10450 10474 10480 10496 10509 10524 10539 10558 10576 10588 10605 10618 10625 10641 10652 10670 10685 10695 10701 10712 10723 10731
10522 10510 10488 10471 10453 10434 10416 10402 10387 10375 10361 10353 10345 10341 10341 10344 10351 10361 10376 10385 10398 10412 10429 10451 10464 10475 10488 10502 10517 10532 10548 10559 10577 10594 10614 10624 10632 10645 10662 10671 10679 10687 10700 10710 10720
10524 10510 10489 10472 10455 10439 10421 10406 10393 10379 10369 10360 10354 10351 10350 10351 10356 10363 10372 10385 10396 10405 10422 10441 10454 10468 10481 10494 10506 10522 10536 10551 10569 10583 10601 10608 10619 10630 10648 10660 10669 10678 10693 10702 10712
10521 10508 10496 10472 10461 10446 10430 10414 10401 10386 10380 10372 10362 10358 10357 10359 10364 10369 10375 10383 10393 10404 10424 10439 10454 10464 10472 10480 10494 10511 10529 10544 10556 10570 10586 10596 10609 10624 10636 10653 10661 10665 10679 10689 10698
10522 10509 10496 10479 10464 10452 10438 10422 10410 10393 10386 10379 10371 10366 10365 10365 10368 10374 10378 10385 10393 10405 10419 10431 10444 10456 10466 10477 10492 10507 10526 10534 10545 10563 10573 10582 10596 10607 10625 10638 10643 10657 10667 10676 10685
10524 10508 10495 10484 10467 10455 10443 10431 10418 10406 10392 10386 10379 10376 10373 10374 10375 10380 10385 10390 10398 10407 10419 10429 10442 10452 10459 10473 10484 10503 10516 10526 10538 10556 10573 10568 10582 10606 10611 10624 10636 10643 10649 10660 10669
10525 10511 10497 10484 10471 10458 10448 10437 10426 10415 10403 10392 10386 10382 10379 10380 10382 10386 10391 10396 10403 10410 10416 10427 10438 10448 10458 10469 10481 10492 10504 10519 10530 10546 10555 10554 10572 10588 10594 10606 10619 10625 10633 10644 10656
10529 10514 10496 10486 10475 10459 10447 10437 10430 10421 10410 10401 10394 10391 10387 10384 10385 10389 10394 10400 10404 10412 10420 10426 10434 10443 10453 10462 10471 10485 10498 10507 10518 10529 10533 10545 10560 10570 10581 10592 10600 10608 10618 10629 10639
10531 10516 10499 10486 10476 10464 10451 10440 10430 10424 10419 10411 10405 10399 10393 10390 10389 10390 10393 10398 10404 10409 10416 10421 10429 10438 10446 10455 10467 10477 10487 10496 10504 10512 10521 10536 10546 10561 10568 10570 10577 10589 10602 10614 10620
10533 10518 10503 10488 10478 10470 10456 10444 10434 10426 10421 10417 10412 10407 10402 10398 10394 10394 10396 10399 10404 10409 10413 10419 10426 10433 10440 10452 10460 10467 10473 10481 10489 10497 10505 10517 10532 10542 10548 10554 10562 10573 10586 10591 10604
10535 10520 10503 10489 10479 10469 10461 10448 10436 10430 10420 10416 10412 10407 10404 10402 10399 10397 10397 10399 10403 10407 10412 10417 10423 10428 10436 10443 10449 10456 10463 10470 10478 10484 10493 10505 10517 10526 10533 10541 10550 10556 10564 10575 10584
10537 10519 10504 10490 10478 10467 10458 10451 10441 10428 10423 10416 10411 10407 10404 10403 10402 10401 10400 10401 10404 10407 10411 10415 10420 10424 10430 10435 10441 10448 10453 10459 10466 10474 10484 10492 10501 10508 10517 10524 10535 10542 10549 10556 10566
10533 10518 10506 10492 10477 10467 10457 10446 10441 10435 10424 10417 10412 10407 10404 10403 10402 10401 10401 10402 10403 10405 10409 10413 10416 10420 10426 10431 10436 10440 10445 10449 10456 10464 10472 10482 10488 10493 10504 10512 10519 10526 10533 10542 10550
10534 10517 10503 10492 10476 10466 10454 10447 10437 10430 10425 10420 10414 10410 10406 10403 10402 10401 10401 10401 10402 10404 10406 10410 10413 10417 10420 10424 10429 10433 10438 10442 10447 10455 10465 10471 10476 10480 10488 10497 10502 10510 10519 10526 10533
10530 10515 10500 10487 10475 10462 10453 10442 10435 10428 10423 10417 10411 10408 10406 10405 10404 10402 10401 10401 10402 10402 10404 10407 10409 10413 10416 10420 10424 10427 10430 10434 10439 10445 10452 10460 10465 10468 10474 10481 10489 10496 10503 10509 10516
10526 10510 10494 10481 10469 10458 10449 10440 10432 10425 10420 10415 10410 10405 10402 10401 10400 10400 10400 10400 10399 10399 10400 10402 10404 10407 10411 10414 10418 10421 10425 10429 10433 10439 10445 10449 10453 10458 10462 10468 10476 10483 10490 10496 10502